Temperature
10 9 8 9 10 10 11 11 11 12 13 12 11 11 12 13 13 13 13 13 12 12 11 11 11 10 10 10 10 10 10 10 10 10 9 9 9 9 9 10 9 9 9 9
8 8 9 10 10 10 10 10 10 11 12 12 11 11 12 12 12 12 12 12 12 11 11 10 10 10 9 9 9 9 9 10 10 10 9 9 9 9 9 9 9 9 9 9
8 9 9 9 9 9 9 9 9 10 11 11 10 9 11 11 12 12 12 11 11 10 10 10 9 9 9 9 9 9 9 9 9 9 9 9 9 8 8 8 8 9 9 9
8 9 9 9 8 8 8 9 9 9 8 8 9 7 9 10 10 10 10 10 10 9 9 9 9 8 8 8 8 8 8 9 9 9 9 8 8 8 8 8 8 8 8 8
7 8 8 8 8 8 8 9 9 9 8 7 8 7 8 10 9 10 9 10 9 9 9 8 8 8 8 8 8 8 8 8 8 8 8 8 8 8 8 8 8 8 8 8
7 8 8 7 8 8 8 8 8 8 7 6 7 7 7 8 9 9 9 9 9 8 8 8 8 7 7 7 7 7 7 7 7 8 8 8 8 8 7 7 7 7 7 7
6 7 7 7 6 7 7 6 5 5 5 6 9 8 7 9 9 9 8 8 8 7 7 7 7 6 6 6 6 7 7 7 7 7 7 7 7 7 7 7 7 7 7 7
4 5 6 6 6 6 6 6 5 5 6 7 8 7 7 9 9 8 8 8 7 7 6 6 6 6 6 6 6 6 6 7 7 7 7 7 7 7 7 6 6 6 7 7
3 4 6 6 6 6 5 5 7 6 5 6 7 7 7 7 7 7 6 6 6 6 5 5 5 5 5 5 5 6 6 6 6 6 6 6 6 6 6 6 6 6 6 6
3 2 4 5 6 5 5 5 5 5 5 5 6 6 5 5 5 5 5 5 5 5 4 4 4 4 4 4 5 5 5 5 6 5 6 6 6 6 6 6 6 6 6 6
3 2 3 4 4 4 4 4 4 5 5 5 5 5 6 5 5 4 4 5 4 4 4 3 3 3 3 4 4 4 5 5 5 5 5 5 5 5 5 5 5 5 5 5
2 2 1 3 4 4 4 4 3 3 3 4 3 4 6 5 5 4 4 4 3 3 3 3 2 2 3 3 3 4 4 4 5 5 5 5 5 5 5 5 5 5 5 5
1 1 1 2 2 3 3 3 3 3 3 3 3 3 4 4 4 4 3 3 3 2 2 2 2 2 2 2 2 3 3 4 4 4 4 4 4 4 4 5 4 4 4 4
2 0 0 1 1 1 1 2 2 2 1 2 2 2 3 3 3 3 3 2 2 1 1 1 1 1 1 2 2 2 2 3 3 4 4 4 4 4 4 4 4 4 4 4
0 -0 0 1 2 2 1 1 1 1 1 1 2 2 2 2 2 2 2 1 1 1 0 0 0 0 1 1 1 1 2 2 3 3 3 3 4 4 4 4 4 4 4 4
-0 -1 -0 0 2 1 1 0 1 1 1 1 1 1 2 2 2 1 1 0 -0 -0 -1 -1 -1 -0 0 0 1 1 1 1 2 2 2 3 3 3 3 3 3 3 3 3
-1 -1 -1 -0 1 1 -1 -1 -0 -0 0 -0 -0 0 1 0 0 0 -0 -1 -1 -1 -1 -1 -1 -1 -0 -0 0 0 1 1 1 1 2 2 2 3 3 3 3 3 3 3
-1 -2 -1 -0 -0 -1 -1 0 -0 -0 -0 -0 -0 -0 -0 -0 -0 -0 -1 -1 -1 -2 -2 -2 -2 -1 -1 -0 -0 -0 0 0 1 1 1 1 2 2 2 2 2 2 2 2
-1 -1 -1 -1 -1 -1 -0 -1 -1 -1 -1 -1 -1 -1 -1 -0 -0 -1 -1 -1 -2 -2 -2 -2 -2 -2 -1 -1 -1 -1 -0 -0 0 0 0 1 1 1 1 1 2 2 2 2
-1 -1 -2 -2 -2 -2 -2 -2 -1 -1 -2 -2 -2 -2 -2 -1 -2 -2 -2 -2 -2 -2 -2 -2 -2 -2 -2 -2 -1 -1 -1 -1 -0 -0 -0 0 0 0 1 1 1 1 1 1
-2 -2 -3 -2 -2 -3 -2 -2 -1 -2 -3 -2 -2 -2 -2 -2 -3 -2 -2 -3 -3 -3 -3 -3 -3 -3 -3 -2 -2 -2 -1 -1 -1 -1 -1 -0 -0 -0 0 0 0 0 0 0
-3 -3 -3 -3 -3 -3 -3 -2 -3 -3 -3 -3 -3 -3 -3 -3 -3 -3 -3 -3 -3 -3 -3 -3 -3 -3 -3 -3 -2 -2 -2 -2 -2 -1 -1 -1 -1 -1 -0 -0 -0 -0 -0 -0
-4 -4 -4 -4 -4 -3 -3 -3 -3 -3 -3 -3 -4 -4 -4 -4 -4 -4 -4 -4 -4 -4 -4 -4 -4 -4 -3 -3 -3 -3 -3 -3 -2 -2 -2 -1 -1 -1 -1 -1 -1 -1 -1 -1
-4 -3 -4 -4 -4 -3 -3 -4 -4 -4 -4 -4 -4 -4 -4 -5 -5 -5 -5 -5 -5 -5 -5 -4 -4 -4 -4 -4 -4 -4 -3 -3 -2 -2 -2 -2 -2 -2 -1 -1 -1 -1 -1 -1
-5 -5 -5 -5 -4 -4 -4 -4 -4 -4 -4 -5 -5 -5 -5 -5 -5 -5 -5 -6 -6 -5 -5 -5 -5 -5 -4 -4 -4 -4 -4 -3 -3 -3 -2 -2 -2 -2 -2 -2 -2 -2 -2 -2
-5 -6 -6 -6 -5 -5 -5 -5 -5 -5 -5 -5 -5 -5 -5 -6 -6 -6 -6 -6 -6 -6 -5 -5 -5 -5 -5 -5 -4 -4 -4 -4 -3 -3 -3 -3 -3 -3 -3 -3 -2 -2 -2 -2
Wind_Speed
6 6 9 10 12 11 9 10 11 9 5 6 10 12 10 8 8 7 6 6 5 5 4 4 5 5 5 5 5 6 6 6 5 4 4 4 4 3 3 3 5 5 5 5
4 9 9 8 9 10 12 13 11 8 4 5 9 12 10 10 9 7 6 5 4 3 3 3 5 5 5 5 5 5 6 6 6 5 4 4 4 3 3 3 4 5 5 5
9 6 6 8 9 11 12 11 9 8 6 6 7 8 9 7 7 5 4 3 3 3 3 3 3 4 5 5 6 6 6 6 6 6 4 4 3 3 3 3 3 4 5 5
8 6 6 7 8 8 10 7 8 8 6 4 4 5 5 5 5 5 4 3 2 2 2 2 3 3 4 4 4 4 5 6 6 7 6 7 6 5 4 4 3 4 4 4
5 4 5 7 8 7 5 6 8 9 8 7 7 5 5 3 3 4 4 3 3 2 2 3 2 3 4 4 4 4 5 5 5 6 7 7 6 4 4 5 5 4 4 4
9 5 4 5 5 6 4 5 7 6 5 8 10 8 4 3 3 3 3 3 3 2 2 2 2 2 3 3 3 4 5 5 5 6 6 7 7 6 6 6 6 5 4 4
5 4 2 1 4 4 3 2 2 3 6 7 7 7 3 2 1 2 3 3 3 4 3 3 2 2 2 2 3 4 5 5 5 5 6 6 7 7 8 7 7 6 4 3
4 4 1 1 3 3 6 6 5 4 4 3 4 5 2 2 4 6 6 5 5 4 3 3 2 1 1 1 3 4 4 4 4 5 5 6 6 5 5 6 6 6 5 5
4 4 3 4 4 4 4 6 5 3 4 3 4 3 1 5 6 6 6 6 5 4 4 3 3 2 1 1 1 3 4 4 4 4 5 6 6 6 5 5 6 5 5 5
5 6 5 4 3 3 4 3 2 3 3 4 4 3 1 2 3 3 4 4 4 4 4 3 3 4 2 1 1 1 2 3 4 4 4 5 5 5 5 5 6 6 6 5
5 4 5 3 2 3 2 2 2 3 3 3 3 1 4 3 2 3 3 4 4 4 4 3 3 4 2 2 1 1 1 2 3 3 3 4 4 5 5 5 6 6 5 6
4 3 5 5 2 3 1 1 0 1 2 2 2 1 6 6 5 4 5 6 5 5 4 4 4 4 3 3 2 1 1 0 2 3 3 3 4 4 5 5 5 6 6 6
4 3 4 2 1 4 3 3 3 3 2 2 2 1 6 7 7 6 6 6 5 5 5 5 4 4 3 3 3 2 1 1 0 2 3 3 4 4 5 5 4 5 6 5
5 3 3 3 4 3 4 4 5 2 1 3 3 3 6 8 8 8 7 6 5 5 5 5 5 5 4 3 3 2 2 1 0 1 2 3 4 4 4 5 5 4 5 5
4 4 4 6 6 3 3 4 4 2 2 2 4 5 6 7 7 7 7 7 7 6 6 6 5 5 4 4 4 3 2 2 1 1 1 2 2 3 4 4 4 4 4 4
4 4 5 5 3 1 4 5 4 4 4 4 5 5 7 7 7 7 7 8 8 7 7 6 6 6 5 5 4 4 3 2 1 1 0 1 2 3 3 4 4 4 4 4
3 4 3 3 2 2 3 4 4 3 3 4 5 6 9 9 9 7 6 7 8 8 8 7 6 6 5 5 4 3 2 2 2 2 1 1 2 3 3 3 4 4 4 4
3 4 3 3 2 2 0 3 3 3 5 6 7 8 8 7 6 5 6 7 8 8 8 7 6 6 5 5 4 4 3 3 3 3 2 2 2 2 3 3 3 3 4 4
2 2 2 2 1 2 2 5 6 3 3 8 9 9 9 8 5 4 8 8 7 7 7 6 5 5 5 5 5 4 4 4 4 4 3 2 2 2 3 3 3 2 3 3
2 1 2 2 1 2 4 8 9 4 2 9 10 9 10 8 5 6 9 9 8 7 7 6 5 6 6 5 5 5 5 4 4 4 3 3 2 2 2 2 2 2 2 2
3 2 1 2 1 1 5 9 6 3 4 10 10 8 8 6 4 6 7 7 7 7 7 7 6 5 5 5 5 5 5 5 4 4 3 3 3 2 2 2 2 2 2 2
3 2 2 2 1 2 7 6 4 4 6 8 9 8 7 7 7 8 7 7 7 8 8 7 6 6 6 6 5 5 6 5 4 4 4 4 3 2 2 2 2 2 2 3
3 2 2 1 0 3 5 4 5 6 6 7 8 8 8 8 8 8 8 8 8 8 7 7 6 6 6 6 5 5 6 5 4 4 4 3 3 3 2 2 2 2 2 2
3 3 2 1 2 4 5 6 7 7 6 7 7 7 7 7 7 8 7 7 7 7 7 7 6 6 6 6 6 6 6 5 4 4 4 3 3 3 3 2 2 1 1 1
4 4 3 3 4 6 6 8 8 8 8 8 8 7 7 7 7 7 6 6 6 7 7 6 6 6 6 6 6 6 6 5 5 4 4 4 3 3 2 2 2 1 1 1
3 3 3 4 5 6 7 8 8 9 8 8 7 7 7 6 6 7 6 6 5 6 6 6 6 6 6 6 6 7 6 6 5 4 4 3 2 2 2 2 2 4 2 3
Wind_Direction
206 220 225 225 226 242 257 260 260 259 245 235 240 250 251 249 242 235 225 212 205 201 190 169 160 158 159 162 165 167 166 166 161 163 164 162 164 162 157 140 144 145 154 159
235 233 239 249 251 253 256 259 266 276 263 256 260 260 254 242 234 223 215 207 191 182 184 165 160 165 170 174 177 173 172 170 169 171 170 165 157 162 162 154 144 152 156 162
238 249 245 251 256 254 254 253 260 270 284 258 267 270 244 237 235 226 210 196 179 179 186 179 174 172 168 176 182 184 177 172 171 166 158 154 147 146 157 164 166 162 161 165
257 259 260 253 256 256 258 261 268 266 264 253 224 271 250 228 223 219 202 187 176 176 179 180 176 174 175 183 180 179 176 173 174 171 171 172 175 174 174 168 169 167 157 157
269 267 262 258 255 256 264 300 276 254 249 256 236 242 263 208 224 214 192 183 179 177 180 175 169 172 174 174 172 172 170 175 178 179 177 177 183 176 158 160 163 167 164 165
273 272 265 266 276 256 264 283 281 256 234 241 223 215 260 217 222 207 173 158 147 121 96 107 108 126 150 154 161 165 166 175 179 180 180 183 185 175 166 167 169 173 174 172
284 250 236 296 288 241 228 219 238 220 215 231 208 203 233 215 147 112 115 107 97 89 75 69 84 100 123 151 162 167 168 175 180 181 183 186 187 181 178 175 174 175 177 176
295 279 220 302 273 257 228 218 217 224 231 246 206 206 196 83 70 60 64 72 67 68 67 60 69 83 122 137 168 169 171 174 177 181 185 184 186 184 183 176 171 177 181 182
304 290 321 319 296 269 240 230 255 276 282 270 223 187 163 60 54 43 43 51 48 52 54 45 34 33 80 123 182 172 171 175 179 186 187 182 183 182 178 171 166 171 171 176
306 291 288 299 291 250 264 272 250 222 232 243 246 218 246 22 28 34 27 21 20 40 35 32 26 14 13 61 141 136 148 173 177 187 191 182 177 179 175 172 169 168 169 168
310 282 291 302 265 286 276 265 255 245 254 248 261 300 20 38 59 48 19 17 16 22 19 19 15 4 9 38 71 114 126 160 175 180 183 173 171 170 171 175 171 165 165 166
321 298 282 277 320 350 334 295 265 228 271 272 281 300 14 28 40 40 21 15 9 10 13 18 14 9 18 29 27 56 69 135 179 168 175 175 169 171 170 171 169 165 167 169
326 301 303 295 29 15 3 346 315 286 287 266 247 261 9 22 29 23 12 3 3 14 13 11 12 10 14 20 13 7 357 357 175 153 165 173 171 173 175 171 165 166 165 167
329 280 262 282 318 334 339 350 355 356 274 291 287 311 347 360 3 2 3 3 4 11 10 8 7 4 7 13 13 2 356 355 9 140 163 180 180 178 178 168 164 166 165 166
337 292 288 296 312 339 359 358 6 352 306 288 314 328 342 346 348 355 2 7 7 9 9 4 359 358 358 6 9 11 19 5 7 111 151 194 178 165 161 157 154 157 162 164
335 306 300 286 283 36 22 13 353 337 330 321 328 327 336 341 356 2 8 6 4 1 358 354 356 357 357 0 359 359 6 11 38 73 89 161 147 140 149 154 153 154 157 156
303 307 305 285 298 346 0 350 343 339 336 328 313 317 343 357 358 0 7 10 6 358 356 354 354 352 350 353 353 351 353 15 46 65 47 87 136 135 138 149 152 158 159 156
278 298 290 289 319 278 43 22 4 359 6 6 354 349 348 343 345 4 14 9 360 356 354 354 354 350 351 352 356 3 19 49 58 59 49 52 100 124 125 130 145 150 147 146
275 269 297 303 293 276 2 4 347 328 344 5 348 344 343 343 351 10 13 6 358 357 353 350 350 354 0 2 1 13 25 42 51 44 35 43 89 114 119 124 128 128 131 133
354 347 299 299 302 320 347 338 327 314 341 358 349 344 342 347 345 337 351 356 358 1 360 358 4 11 11 5 7 23 25 31 31 22 16 19 51 88 108 121 118 111 119 129
358 345 339 299 270 2 351 335 347 14 324 339 342 341 343 342 327 326 343 353 358 1 3 4 10 13 5 6 17 21 21 13 8 15 24 33 42 59 87 101 107 117 119 125
356 346 339 324 317 309 352 5 22 333 326 339 347 348 345 339 340 348 350 354 359 1 3 4 8 9 6 12 20 18 11 2 8 21 37 39 34 36 66 88 93 110 131 132
33 8 329 345 282 329 349 354 344 343 339 341 343 344 348 350 349 351 354 357 359 359 358 359 2 6 6 11 18 17 0 359 5 24 39 37 34 34 52 82 92 100 114 119
358 344 322 316 333 337 351 359 356 352 344 341 341 341 347 346 345 349 352 355 356 356 356 358 3 6 3 4 10 11 3 1 11 26 32 33 39 41 46 53 66 83 100 120
329 338 325 303 319 332 350 354 350 347 346 345 343 344 347 345 343 347 347 349 352 352 353 357 1 4 2 5 8 7 5 12 20 19 23 23 24 33 45 45 50 62 46 98
343 328 314 294 318 315 315 333 343 341 338 337 337 343 348 346 340 342 341 345 350 351 354 355 359 2 2 8 7 6 8 11 15 13 14 15 16 18 32 46 40 45 53 53
Height
1464 1467 1465 1461 1461 1460 1459 1459 1458 1454 1453 1456 1456 1456 1454 1454 1455 1456 1457 1459 1461 1464 1466 1468 1470 1472 1474 1476 1478 1480 1482 1484 1487 1489 1491 1493 1495 1498 1500 1502 1504 1507 1509 1511
1464 1463 1460 1459 1459 1459 1459 1459 1457 1454 1452 1454 1454 1452 1450 1450 1451 1452 1454 1456 1458 1461 1463 1465 1467 1469 1471 1472 1474 1476 1478 1481 1483 1486 1488 1490 1492 1495 1497 1499 1501 1504 1506 1508
1461 1458 1457 1458 1458 1458 1457 1458 1457 1457 1454 1453 1455 1453 1448 1446 1447 1449 1451 1453 1455 1458 1460 1462 1463 1465 1467 1469 1470 1472 1474 1477 1480 1482 1485 1487 1489 1492 1494 1496 1498 1500 1503 1505
1458 1456 1456 1457 1458 1458 1458 1454 1455 1456 1460 1461 1457 1463 1447 1444 1445 1446 1448 1450 1452 1455 1457 1459 1460 1462 1463 1465 1467 1469 1470 1473 1476 1478 1481 1483 1484 1486 1489 1492 1495 1497 1499 1502
1458 1456 1456 1456 1455 1456 1456 1455 1455 1455 1457 1460 1457 1462 1451 1442 1445 1445 1446 1448 1450 1453 1455 1456 1458 1459 1460 1462 1463 1465 1467 1469 1472 1474 1477 1479 1481 1484 1486 1489 1491 1493 1496 1498
1457 1455 1456 1455 1455 1455 1455 1457 1455 1453 1457 1462 1453 1457 1451 1446 1443 1443 1444 1446 1449 1451 1453 1454 1455 1456 1457 1459 1460 1462 1464 1466 1468 1470 1473 1475 1478 1480 1482 1484 1487 1489 1492 1495
1457 1454 1455 1456 1456 1455 1456 1461 1465 1462 1461 1454 1441 1447 1451 1442 1440 1441 1443 1445 1447 1449 1451 1452 1452 1453 1454 1455 1457 1459 1460 1462 1464 1466 1469 1471 1474 1476 1478 1480 1483 1485 1488 1490
1464 1460 1455 1455 1457 1457 1456 1457 1463 1462 1454 1447 1441 1446 1447 1441 1441 1443 1444 1446 1447 1449 1450 1451 1451 1451 1452 1453 1454 1456 1457 1459 1461 1463 1465 1467 1470 1472 1474 1477 1479 1482 1484 1486
1470 1463 1456 1455 1455 1456 1455 1455 1451 1455 1454 1453 1444 1444 1442 1442 1443 1445 1446 1447 1448 1449 1450 1450 1450 1450 1450 1451 1452 1453 1454 1456 1457 1459 1461 1463 1466 1468 1470 1473 1476 1478 1480 1483
1471 1470 1459 1456 1455 1454 1455 1453 1455 1457 1456 1452 1444 1445 1450 1447 1447 1448 1448 1449 1449 1449 1449 1449 1449 1449 1449 1449 1449 1450 1451 1453 1454 1456 1458 1460 1462 1465 1467 1470 1473 1475 1477 1480
1473 1473 1464 1459 1458 1457 1456 1456 1454 1454 1451 1453 1453 1455 1447 1447 1448 1449 1450 1450 1450 1449 1449 1449 1448 1448 1447 1447 1447 1448 1449 1450 1452 1453 1455 1457 1459 1462 1464 1467 1470 1472 1474 1476
1473 1473 1469 1461 1457 1456 1456 1456 1458 1462 1458 1454 1459 1461 1449 1449 1449 1450 1451 1451 1451 1450 1449 1448 1448 1447 1446 1445 1445 1446 1447 1448 1449 1451 1453 1454 1456 1459 1461 1463 1466 1469 1471 1473
1476 1476 1473 1464 1464 1462 1460 1459 1458 1459 1460 1459 1462 1463 1453 1452 1452 1452 1452 1452 1451 1450 1449 1448 1447 1446 1445 1444 1444 1444 1445 1445 1447 1448 1450 1452 1454 1456 1458 1460 1463 1465 1468 1470
1476 1476 1476 1474 1469 1467 1466 1464 1462 1463 1466 1464 1462 1461 1459 1456 1455 1454 1454 1453 1452 1450 1449 1447 1446 1445 1444 1444 1443 1443 1443 1444 1445 1446 1447 1449 1451 1453 1455 1457 1459 1462 1464 1466
1478 1478 1474 1470 1466 1466 1468 1467 1467 1467 1466 1467 1464 1462 1461 1460 1458 1457 1455 1454 1452 1450 1449 1447 1446 1445 1443 1442 1442 1441 1441 1442 1443 1444 1445 1447 1449 1450 1452 1454 1456 1459 1461 1463
1479 1479 1475 1471 1466 1466 1468 1470 1469 1469 1468 1468 1466 1466 1463 1461 1459 1457 1456 1455 1453 1451 1450 1448 1446 1444 1443 1441 1440 1440 1440 1440 1440 1441 1442 1444 1446 1447 1449 1451 1454 1456 1457 1459
1481 1481 1478 1472 1466 1467 1474 1475 1473 1473 1471 1471 1471 1470 1465 1462 1461 1459 1458 1456 1454 1452 1450 1448 1445 1444 1442 1441 1440 1439 1438 1438 1439 1439 1440 1442 1443 1444 1446 1449 1451 1452 1454 1456
1482 1481 1479 1474 1472 1479 1480 1474 1473 1473 1472 1472 1471 1469 1467 1465 1462 1460 1459 1457 1455 1453 1450 1448 1446 1443 1442 1440 1439 1438 1437 1437 1437 1438 1439 1440 1441 1442 1444 1446 1448 1450 1451 1453
1479 1480 1480 1477 1478 1476 1476 1475 1475 1475 1475 1475 1472 1469 1467 1464 1461 1460 1459 1457 1455 1453 1450 1448 1446 1444 1442 1440 1439 1438 1437 1436 1436 1437 1438 1438 1439 1440 1441 1443 1445 1446 1448 1450
1479 1480 1482 1480 1482 1485 1484 1479 1475 1475 1477 1476 1473 1471 1468 1465 1464 1462 1460 1457 1455 1452 1450 1447 1445 1443 1441 1440 1439 1437 1436 1436 1436 1436 1437 1437 1437 1438 1439 1440 1442 1444 1446 1447
1485 1484 1485 1484 1484 1485 1485 1480 1476 1482 1484 1478 1475 1472 1469 1467 1467 1464 1460 1457 1455 1452 1449 1447 1445 1443 1442 1440 1439 1437 1436 1436 1436 1436 1436 1437 1437 1438 1438 1439 1440 1442 1444 1445
1490 1490 1488 1486 1489 1493 1486 1482 1484 1486 1482 1479 1475 1472 1470 1467 1465 1463 1460 1457 1454 1451 1449 1447 1445 1443 1442 1441 1439 1437 1437 1436 1436 1436 1436 1436 1437 1437 1438 1438 1439 1441 1442 1443
1492 1495 1493 1493 1495 1491 1488 1487 1486 1484 1481 1478 1475 1472 1470 1467 1464 1462 1459 1457 1454 1452 1449 1447 1445 1443 1442 1441 1439 1438 1437 1436 1436 1435 1436 1436 1436 1437 1437 1438 1438 1439 1440 1441
1494 1493 1493 1492 1491 1490 1488 1487 1485 1483 1481 1478 1475 1472 1469 1466 1464 1462 1459 1457 1454 1452 1449 1447 1445 1443 1442 1441 1440 1438 1438 1437 1435 1435 1435 1436 1436 1436 1437 1437 1438 1439 1439 1440
1499 1496 1495 1493 1492 1489 1488 1487 1485 1482 1479 1477 1474 1471 1469 1466 1464 1461 1459 1457 1455 1452 1450 1448 1446 1444 1442 1441 1440 1439 1438 1437 1435 1435 1435 1435 1436 1436 1436 1437 1438 1438 1439 1440
1500 1500 1499 1497 1494 1493 1489 1487 1484 1481 1479 1476 1473 1470 1468 1466 1463 1461 1459 1457 1455 1452 1450 1448 1446 1444 1443 1441 1440 1439 1438 1437 1436 1435 1435 1435 1435 1436 1436 1436 1437 1438 1438 1439